SCP
-0 0 0 -0 -0 -0 -0 -0 -0 -0 -0 -0 -0 -0 0 -0 -0 -0 0 0 0 0 0 0 -0 -0 -0 -0 -0 -0 -0 0 -0 0 0 -0 -0 -0 -0 -0 -0 0 -0
-0 0 -0 -0 -0 -0 -0 -0 -0 -0 -0 -0 -0 -0 0 -0 -0 -0 -0 -0 0 0 -0 -0 -0 -0 -0 -0 -0 -0 -0 0 0 -0 0 0 0 -0 0 0 0 0 -0
0 0 0 -0 -0 -0 -0 -0 -0 -0 -0 -0 -0 -0 -0 0 0 0 0 0 -0 -0 -0 -0 -0 -0 -0 -0 -0 -0 -0 -0 0 0 0 0 0 0 0 0 0 0 0
0 0 0 -0 -0 -0 -0 -0 -0 -0 0 -0 0 0 0 0 0 -0 -0 -0 -0 -0 -0 -0 -0 -0 0 0 -0 -0 -0 0 -0 0 0 0 0 0 0 0 -0 -0 -0
-0 0 0 -0 -0 -0 -0 -0 -0 -0 0 0 0 0 0 0 0 -0 0 -0 -0 -0 0 -0 -0 0 0 0 0 0 0 0 -0 0 0 0 0 0 0 0 0 0 0
-0 -0 0 -0 -0 -0 -0 -0 -0 -0 -0 0 0 0 0 0 0 -0 -0 -0 0 0 0 -0 -0 -0 0 0 0 0 0 -0 -0 0 0 0 0 -0 0 0 0 0 0
-0 -0 -0 -0 -0 -0 -0 -0 -0 0 0 0 0 -0 -0 0 0 0 -0 -0 -0 -0 -0 -0 -0 -0 -0 0 0 0 0 0 0 0 0 0 0 -0 -0 0 0 0 0
0 0 -0 0 -0 -0 -0 -0 -0 -0 0 0 0 -0 -0 -0 -0 0 0 -0 -0 -0 -0 -0 -0 -0 -0 0 0 -0 0 0 0 0 0 0 0 0 -0 -0 0 0 0
0 -0 -0 -0 0 -0 -0 -0 -0 -0 0 0 -0 -0 -0 -0 -0 -0 -0 0 0 -0 -0 -0 -0 -0 -0 0 -0 -0 0 0 -0 -0 0 0 0 -0 -0 -0 -0 0 0
-0 -0 -0 -0 -0 -0 -0 -0 -0 -0 -0 -0 -0 -0 -0 -0 -0 0 0 -0 -0 -0 -0 0 -0 -0 0 0 -0 -0 0 0 -0 -0 -0 0 0 -0 -0 -0 -0 -0 -0
-0 -0 -0 0 -0 -0 -0 -0 0 -0 -0 -0 -0 -0 -0 -0 0 0 0 0 0 0 -0 -0 0 -0 0 0 0 0 0 0 -0 0 0 -0 -0 -0 -0 -0 -0 -0 -0
0 -0 0 0 0 0 0 -0 -0 -0 -0 -0 -0 -0 -0 0 0 0 0 0 0 0 -0 -0 -0 0 0 0 0 0 0 0 0 0 0 -0 -0 -0 -0 -0 -0 -0 -0
0 0 0 0 0 0 0 0 0 -0 -0 -0 0 0 0 -0 0 0 0 0 0 0 0 0 -0 0 0 0 0 0 0 0 0 0 -0 -0 -0 -0 -0 -0 -0 -0 -0
0 -0 0 0 0 0 0 0 0 0 0 0 0 0 -0 -0 -0 0 0 0 0 0 0 0 0 0 0 0 0 0 0 0 0 0 0 -0 -0 -0 -0 -0 -0 -0 -0
0 0 -0 -0 0 0 0 0 0 0 0 0 0 -0 -0 -0 -0 -0 0 0 0 0 -0 -0 0 0 0 0 0 0 0 0 0 0 0 -0 -0 -0 -0 -0 -0 -0 -0
0 -0 -0 0 0 0 0 0 0 0 0 0 -0 -0 -0 -0 -0 -0 -0 0 0 0 0 0 0 0 0 0 0 0 0 0 0 0 0 0 -0 -0 -0 -0 -0 -0 -0
-0 0 -0 -0 0 0 0 0 0 0 0 0 0 0 0 0 -0 -0 -0 0 0 0 0 0 -0 0 -0 0 0 0 0 0 0 0 0 0 0 -0 -0 -0 -0 -0 -0
-0 -0 -0 -0 -0 0 0 0 -0 -0 -0 -0 -0 0 -0 0 -0 -0 -0 -0 0 0 0 0 0 -0 -0 -0 -0 0 0 0 0 0 0 -0 -0 0 0 -0 -0 0 -0
0 -0 -0 -0 -0 0 0 0 0 -0 0 0 -0 -0 -0 -0 -0 -0 0 -0 -0 0 0 0 0 0 -0 0 -0 0 0 0 0 0 0 0 0 0 0 -0 0 0 -0
0 0 0 0 -0 0 0 0 0 0 0 0 0 -0 -0 -0 -0 -0 -0 0 0 0 -0 0 0 0 0 0 0 -0 0 0 0 0 0 0 0 -0 0 0 -0 0 0
-0 0 0 0 0 0 0 0 0 0 0 0 0 0 0 0 -0 -0 0 -0 0 0 -0 0 0 0 0 0 0 0 -0 0 0 0 0 0 0 0 -0 0 0 0 0
-0 0 0 0 0 0 0 0 1 1 0 0 0 0 0 0 0 -0 -0 0 -0 0 0 0 0 0 0 0 0 0 -0 0 0 0 0 0 0 0 0 0 0 0 0
0 0 0 0 0 0 0 1 1 0 0 0 0 0 0 0 0 0 0 0 0 0 0 0 0 0 0 0 0 0 0 0 0 0 0 0 0 0 0 0 0 0 0
0 0 0 0 0 1 1 1 1 0 0 0 0 0 0 0 0 0 0 0 0 0 0 0 0 0 0 0 0 0 0 0 0 0 0 0 0 0 0 0 0 0 0
0 0 0 0 0 1 1 1 1 0 0 0 0 1 1 1 1 1 1 1 1 1 1 0 1 0 0 1 0 0 0 0 0 0 0 0 0 0 0 0 0 0 0
0 0 0 0 0 0 0 1 1 1 1 1 0 1 1 1 1 1 1 1 1 1 1 1 1 1 1 1 1 0 0 0 0 0 0 0 0 0 0 0 0 0 0
Wind_Speed_500mb
37 36 41 41 42 41 42 51 52 54 55 57 60 55 52 51 53 50 39 31 28 28 29 28 27 25 24 26 24 22 20 19 18 22 25 28 27 24 23 19 24 23 22
44 40 42 40 42 42 42 47 52 54 55 58 56 55 52 48 45 40 33 31 30 29 27 24 26 24 22 23 24 24 25 24 22 24 22 24 24 22 22 21 21 20 17
41 39 39 40 40 40 41 45 49 52 56 56 54 53 46 42 37 33 33 33 30 27 27 27 24 25 25 28 30 32 31 31 27 25 21 23 23 23 23 22 20 18 18
44 41 39 40 41 40 40 42 46 49 52 54 54 52 43 39 37 36 35 33 27 24 24 23 25 25 27 33 35 34 29 26 24 23 22 22 25 22 21 19 21 18 17
44 41 38 40 41 41 39 40 45 47 47 53 57 48 41 39 40 38 33 30 25 23 23 21 25 29 33 37 38 35 29 26 26 22 16 16 16 20 21 20 18 16 15
43 40 39 38 39 40 37 40 48 50 48 54 55 44 38 35 34 32 28 26 23 22 23 19 28 31 37 35 31 25 25 25 24 22 18 16 13 15 15 18 16 16 13
46 42 39 37 36 37 37 42 47 50 52 56 55 47 41 35 32 29 25 22 21 21 23 22 29 32 32 27 22 23 23 24 22 20 17 14 12 10 11 12 13 13 12
47 45 41 37 37 39 40 44 45 48 55 54 54 47 39 32 27 22 17 19 22 23 24 23 28 29 25 21 20 18 20 19 17 16 15 11 10 8 8 8 9 10 10
42 43 40 39 38 39 42 43 44 48 56 54 50 43 35 30 22 15 10 17 17 17 18 23 27 27 26 21 15 19 16 17 16 12 10 7 5 6 5 6 7 7 8
39 38 40 38 38 37 43 44 42 47 54 51 44 36 32 28 22 15 14 15 16 16 17 20 23 28 27 23 19 14 10 16 14 8 7 6 3 2 5 8 8 7 6
40 36 38 41 41 38 41 44 41 41 47 49 44 38 33 28 22 16 14 14 11 11 14 17 22 28 31 26 21 16 11 15 13 5 2 4 4 5 7 9 11 11 10
48 41 39 40 43 42 40 43 42 40 43 47 46 43 37 30 24 20 16 14 16 11 11 15 20 26 33 32 26 21 12 13 8 4 5 10 7 7 11 11 14 15 15
49 45 42 38 39 41 42 43 41 40 39 41 42 40 37 34 30 28 23 22 20 18 15 17 19 27 33 37 32 25 18 14 11 13 15 14 8 6 9 12 13 16 17
50 46 43 41 39 38 39 40 38 40 39 39 37 36 36 35 33 29 26 25 24 21 20 19 19 23 31 39 37 31 26 23 18 19 16 13 7 5 7 10 11 13 16
45 43 43 43 41 39 39 40 40 38 38 37 37 37 36 36 34 32 30 27 24 25 20 21 22 25 31 37 41 38 31 29 27 22 19 16 11 8 10 15 13 13 15
40 37 34 41 43 41 38 37 36 36 35 36 36 37 38 38 36 35 30 27 27 27 22 22 25 28 33 36 41 43 37 33 27 18 20 21 20 18 18 18 17 16 16
41 37 34 34 42 43 40 39 38 36 36 35 34 36 38 39 37 35 32 40 30 27 28 26 28 33 37 40 44 46 44 37 33 24 19 21 24 19 18 17 20 19 19
46 42 36 32 35 40 40 39 40 40 39 37 35 35 38 41 40 39 38 38 30 29 31 29 30 36 39 41 45 48 46 44 38 36 30 25 29 26 25 23 22 21 22
38 43 39 33 25 27 33 35 38 40 41 40 38 38 42 44 43 43 40 39 38 36 37 38 37 39 38 41 45 51 51 51 45 42 40 38 33 37 35 28 30 27 25
39 41 43 42 30 19 32 34 33 37 39 42 45 43 42 43 43 45 44 42 43 43 43 45 45 43 42 40 46 52 53 53 57 54 51 48 46 45 41 39 37 36 34
45 45 48 45 41 38 35 27 40 37 39 45 42 48 48 51 53 53 52 47 48 51 45 49 48 49 50 49 48 51 58 57 57 60 61 59 57 56 54 48 45 42 40
35 32 31 38 44 46 51 46 44 47 45 59 52 49 54 60 60 62 57 55 51 53 53 51 53 54 54 53 54 52 53 56 63 62 64 62 63 62 61 59 57 55 50
34 24 20 26 30 38 48 56 52 48 51 62 59 55 62 61 68 66 67 63 62 57 60 56 56 57 59 58 58 52 23 30 38 52 53 54 56 54 60 61 61 64 63
35 27 20 19 24 35 40 45 47 55 68 51 57 54 60 59 63 70 71 72 69 67 65 63 60 62 62 63 61 64 63 58 22 18 18 34 40 51 55 52 50 53 54
26 18 18 15 20 30 39 42 47 50 48 39 47 59 61 63 61 61 66 75 84 82 75 71 69 66 66 66 66 67 69 71 70 72 64 64 53 39 30 48 44 38 51
23 19 17 18 18 18 23 27 41 54 59 61 59 58 56 55 57 62 62 65 71 81 87 85 81 79 74 74 73 72 76 74 74 75 76 77 67 57 50 53 58 50 41
Wind_Direction_500mb
154 149 152 146 141 139 137 136 134 138 137 136 135 131 129 126 127 128 126 124 122 117 118 116 120 118 114 120 110 109 107 111 106 111 108 106 107 110 120 114 115 110 113
145 145 151 148 141 140 137 142 138 138 139 137 134 133 130 127 126 127 123 120 125 123 124 122 124 124 121 123 117 113 110 107 109 113 112 115 119 117 114 117 119 122 124
143 141 149 150 147 145 140 142 142 141 142 142 140 134 131 127 124 123 125 124 121 118 122 120 124 126 123 122 117 113 108 105 104 115 114 111 120 121 120 117 113 110 104
143 145 148 147 151 149 147 148 150 148 147 149 144 138 131 126 124 124 123 120 123 122 120 123 128 124 124 122 120 116 108 104 113 118 112 110 113 118 128 124 121 119 112
148 149 149 147 149 150 149 150 153 151 151 153 151 145 136 131 125 123 125 121 120 123 119 123 127 128 126 123 117 112 106 107 114 111 107 100 114 122 126 127 133 133 131
150 150 149 147 149 150 152 156 155 158 156 157 160 155 146 139 134 130 126 126 124 126 132 138 132 131 131 128 123 114 107 107 107 104 97 98 109 118 126 131 134 135 135
151 149 151 151 154 156 157 158 159 160 161 161 162 161 155 150 146 141 135 132 133 135 141 142 137 138 140 136 130 124 117 110 105 107 106 106 107 113 127 135 141 145 147
154 154 153 155 157 158 156 156 161 164 162 163 163 163 160 157 155 147 138 135 139 145 151 154 151 150 148 141 138 126 129 121 113 107 106 109 119 119 133 143 154 156 156
159 159 157 158 157 157 159 160 160 165 165 165 167 169 169 168 162 161 154 140 139 152 164 166 169 166 164 160 154 142 139 125 119 106 97 103 124 156 168 170 169 175 181
161 157 159 163 161 161 162 165 165 168 174 174 177 179 181 179 181 178 168 163 157 156 176 180 183 182 183 177 169 162 158 156 141 123 87 53 34 254 204 198 190 186 194
169 162 164 170 167 168 169 172 173 177 184 190 194 194 195 200 196 192 187 182 175 183 178 192 204 201 198 191 188 189 173 173 165 146 27 339 339 284 243 227 213 218 220
177 174 173 177 175 173 174 178 182 184 188 193 196 200 205 207 211 206 206 216 217 212 198 193 206 211 207 199 195 204 189 170 178 238 303 297 296 280 260 237 236 230 232
184 185 185 184 183 183 182 183 187 192 194 197 203 208 214 218 220 215 220 228 225 235 227 212 211 221 213 206 203 209 211 216 255 270 277 257 252 267 263 251 245 248 242
193 194 192 192 193 194 194 195 194 198 202 205 208 212 216 220 225 230 236 241 244 234 237 228 226 222 216 211 210 214 219 233 249 273 245 222 234 256 273 272 256 257 256
199 200 200 200 202 205 204 206 210 209 211 212 214 218 221 226 231 242 249 251 251 247 233 235 230 224 212 213 215 218 224 232 251 263 227 215 232 258 279 272 272 267 267
203 210 211 212 213 214 216 218 220 223 223 223 223 226 230 234 237 242 248 268 255 254 245 236 233 231 223 222 221 222 224 230 246 240 235 228 239 261 274 274 266 271 277
209 217 221 228 226 225 226 228 229 232 233 233 232 233 237 240 241 246 242 242 256 261 260 246 240 234 229 229 226 224 225 233 238 235 233 236 245 263 275 286 267 266 273
220 220 224 230 237 236 238 239 240 240 242 243 243 243 244 246 246 247 249 252 239 253 252 255 250 246 239 239 235 232 235 238 242 246 239 249 250 262 265 274 283 285 276
227 226 225 230 237 243 241 246 248 249 248 249 251 253 250 251 250 250 253 256 258 256 258 259 257 252 246 243 247 244 243 247 247 250 250 248 248 248 255 262 271 275 280
231 235 236 236 226 241 248 241 244 250 248 250 253 257 251 251 250 253 255 258 260 260 259 258 257 253 254 256 255 254 251 250 251 249 251 253 251 252 255 257 263 269 275
233 238 245 245 242 244 251 247 238 253 253 251 256 257 251 253 252 254 257 256 259 261 259 262 262 258 255 254 262 260 255 252 251 251 253 253 254 253 254 258 261 264 270
242 244 259 255 253 252 252 254 252 257 263 263 265 268 261 255 256 257 256 258 256 260 258 256 260 260 259 254 256 264 276 265 256 253 253 257 253 257 253 255 258 263 269
232 259 271 251 251 254 255 255 261 271 267 271 265 272 274 269 264 262 258 258 257 257 258 254 254 256 261 259 254 252 259 260 273 270 263 255 258 256 254 261 262 264 264
231 257 261 255 258 268 267 261 264 274 276 271 271 279 284 273 273 268 263 259 260 259 256 256 257 256 255 259 256 250 250 251 265 283 273 253 256 256 256 255 264 269 267
230 231 229 250 252 263 273 277 262 274 277 289 286 284 279 278 275 271 269 263 258 260 260 258 258 256 254 256 257 254 250 251 253 254 265 266 266 264 269 256 254 275 267
194 197 208 205 207 235 249 256 255 257 265 270 275 276 275 273 272 273 275 268 263 260 259 260 260 258 256 254 254 255 251 251 253 254 256 264 271 272 270 267 265 272 282
Wind_Speed_850mb
37 36 41 41 42 41 42 51 52 54 55 57 60 55 52 51 53 50 39 31 28 28 29 28 27 25 24 26 24 22 20 19 18 22 25 28 27 24 23 19 24 23 22
44 40 42 40 42 42 42 47 52 54 55 58 56 55 52 48 45 40 33 31 30 29 27 24 26 24 22 23 24 24 25 24 22 24 22 24 24 22 22 21 21 20 17
41 39 39 40 40 40 41 45 49 52 56 56 54 53 46 42 37 33 33 33 30 27 27 27 24 25 25 28 30 32 31 31 27 25 21 23 23 23 23 22 20 18 18
44 41 39 40 41 40 40 42 46 49 52 54 54 52 43 39 37 36 35 33 27 24 24 23 25 25 27 33 35 34 29 26 24 23 22 22 25 22 21 19 21 18 17
44 41 38 40 41 41 39 40 45 47 47 53 57 48 41 39 40 38 33 30 25 23 23 21 25 29 33 37 38 35 29 26 26 22 16 16 16 20 21 20 18 16 15
43 40 39 38 39 40 37 40 48 50 48 54 55 44 38 35 34 32 28 26 23 22 23 19 28 31 37 35 31 25 25 25 24 22 18 16 13 15 15 18 16 16 13
46 42 39 37 36 37 37 42 47 50 52 56 55 47 41 35 32 29 25 22 21 21 23 22 29 32 32 27 22 23 23 24 22 20 17 14 12 10 11 12 13 13 12
47 45 41 37 37 39 40 44 45 48 55 54 54 47 39 32 27 22 17 19 22 23 24 23 28 29 25 21 20 18 20 19 17 16 15 11 10 8 8 8 9 10 10
42 43 40 39 38 39 42 43 44 48 56 54 50 43 35 30 22 15 10 17 17 17 18 23 27 27 26 21 15 19 16 17 16 12 10 7 5 6 5 6 7 7 8
39 38 40 38 38 37 43 44 42 47 54 51 44 36 32 28 22 15 14 15 16 16 17 20 23 28 27 23 19 14 10 16 14 8 7 6 3 2 5 8 8 7 6
40 36 38 41 41 38 41 44 41 41 47 49 44 38 33 28 22 16 14 14 11 11 14 17 22 28 31 26 21 16 11 15 13 5 2 4 4 5 7 9 11 11 10
48 41 39 40 43 42 40 43 42 40 43 47 46 43 37 30 24 20 16 14 16 11 11 15 20 26 33 32 26 21 12 13 8 4 5 10 7 7 11 11 14 15 15
49 45 42 38 39 41 42 43 41 40 39 41 42 40 37 34 30 28 23 22 20 18 15 17 19 27 33 37 32 25 18 14 11 13 15 14 8 6 9 12 13 16 17
50 46 43 41 39 38 39 40 38 40 39 39 37 36 36 35 33 29 26 25 24 21 20 19 19 23 31 39 37 31 26 23 18 19 16 13 7 5 7 10 11 13 16
45 43 43 43 41 39 39 40 40 38 38 37 37 37 36 36 34 32 30 27 24 25 20 21 22 25 31 37 41 38 31 29 27 22 19 16 11 8 10 15 13 13 15
40 37 34 41 43 41 38 37 36 36 35 36 36 37 38 38 36 35 30 27 27 27 22 22 25 28 33 36 41 43 37 33 27 18 20 21 20 18 18 18 17 16 16
41 37 34 34 42 43 40 39 38 36 36 35 34 36 38 39 37 35 32 40 30 27 28 26 28 33 37 40 44 46 44 37 33 24 19 21 24 19 18 17 20 19 19
46 42 36 32 35 40 40 39 40 40 39 37 35 35 38 41 40 39 38 38 30 29 31 29 30 36 39 41 45 48 46 44 38 36 30 25 29 26 25 23 22 21 22
38 43 39 33 25 27 33 35 38 40 41 40 38 38 42 44 43 43 40 39 38 36 37 38 37 39 38 41 45 51 51 51 45 42 40 38 33 37 35 28 30 27 25
39 41 43 42 30 19 32 34 33 37 39 42 45 43 42 43 43 45 44 42 43 43 43 45 45 43 42 40 46 52 53 53 57 54 51 48 46 45 41 39 37 36 34
45 45 48 45 41 38 35 27 40 37 39 45 42 48 48 51 53 53 52 47 48 51 45 49 48 49 50 49 48 51 58 57 57 60 61 59 57 56 54 48 45 42 40
35 32 31 38 44 46 51 46 44 47 45 59 52 49 54 60 60 62 57 55 51 53 53 51 53 54 54 53 54 52 53 56 63 62 64 62 63 62 61 59 57 55 50
34 24 20 26 30 38 48 56 52 48 51 62 59 55 62 61 68 66 67 63 62 57 60 56 56 57 59 58 58 52 23 30 38 52 53 54 56 54 60 61 61 64 63
35 27 20 19 24 35 40 45 47 55 68 51 57 54 60 59 63 70 71 72 69 67 65 63 60 62 62 63 61 64 63 58 22 18 18 34 40 51 55 52 50 53 54
26 18 18 15 20 30 39 42 47 50 48 39 47 59 61 63 61 61 66 75 84 82 75 71 69 66 66 66 66 67 69 71 70 72 64 64 53 39 30 48 44 38 51
23 19 17 18 18 18 23 27 41 54 59 61 59 58 56 55 57 62 62 65 71 81 87 85 81 79 74 74 73 72 76 74 74 75 76 77 67 57 50 53 58 50 41
Wind_Direction_850mb
154 149 152 146 141 139 137 136 134 138 137 136 135 131 129 126 127 128 126 124 122 117 118 116 120 118 114 120 110 109 107 111 106 111 108 106 107 110 120 114 115 110 113
145 145 151 148 141 140 137 142 138 138 139 137 134 133 130 127 126 127 123 120 125 123 124 122 124 124 121 123 117 113 110 107 109 113 112 115 119 117 114 117 119 122 124
143 141 149 150 147 145 140 142 142 141 142 142 140 134 131 127 124 123 125 124 121 118 122 120 124 126 123 122 117 113 108 105 104 115 114 111 120 121 120 117 113 110 104
143 145 148 147 151 149 147 148 150 148 147 149 144 138 131 126 124 124 123 120 123 122 120 123 128 124 124 122 120 116 108 104 113 118 112 110 113 118 128 124 121 119 112
148 149 149 147 149 150 149 150 153 151 151 153 151 145 136 131 125 123 125 121 120 123 119 123 127 128 126 123 117 112 106 107 114 111 107 100 114 122 126 127 133 133 131
150 150 149 147 149 150 152 156 155 158 156 157 160 155 146 139 134 130 126 126 124 126 132 138 132 131 131 128 123 114 107 107 107 104 97 98 109 118 126 131 134 135 135
151 149 151 151 154 156 157 158 159 160 161 161 162 161 155 150 146 141 135 132 133 135 141 142 137 138 140 136 130 124 117 110 105 107 106 106 107 113 127 135 141 145 147
154 154 153 155 157 158 156 156 161 164 162 163 163 163 160 157 155 147 138 135 139 145 151 154 151 150 148 141 138 126 129 121 113 107 106 109 119 119 133 143 154 156 156
159 159 157 158 157 157 159 160 160 165 165 165 167 169 169 168 162 161 154 140 139 152 164 166 169 166 164 160 154 142 139 125 119 106 97 103 124 156 168 170 169 175 181
161 157 159 163 161 161 162 165 165 168 174 174 177 179 181 179 181 178 168 163 157 156 176 180 183 182 183 177 169 162 158 156 141 123 87 53 34 254 204 198 190 186 194
169 162 164 170 167 168 169 172 173 177 184 190 194 194 195 200 196 192 187 182 175 183 178 192 204 201 198 191 188 189 173 173 165 146 27 339 339 284 243 227 213 218 220
177 174 173 177 175 173 174 178 182 184 188 193 196 200 205 207 211 206 206 216 217 212 198 193 206 211 207 199 195 204 189 170 178 238 303 297 296 280 260 237 236 230 232
184 185 185 184 183 183 182 183 187 192 194 197 203 208 214 218 220 215 220 228 225 235 227 212 211 221 213 206 203 209 211 216 255 270 277 257 252 267 263 251 245 248 242
193 194 192 192 193 194 194 195 194 198 202 205 208 212 216 220 225 230 236 241 244 234 237 228 226 222 216 211 210 214 219 233 249 273 245 222 234 256 273 272 256 257 256
199 200 200 200 202 205 204 206 210 209 211 212 214 218 221 226 231 242 249 251 251 247 233 235 230 224 212 213 215 218 224 232 251 263 227 215 232 258 279 272 272 267 267
203 210 211 212 213 214 216 218 220 223 223 223 223 226 230 234 237 242 248 268 255 254 245 236 233 231 223 222 221 222 224 230 246 240 235 228 239 261 274 274 266 271 277
209 217 221 228 226 225 226 228 229 232 233 233 232 233 237 240 241 246 242 242 256 261 260 246 240 234 229 229 226 224 225 233 238 235 233 236 245 263 275 286 267 266 273
220 220 224 230 237 236 238 239 240 240 242 243 243 243 244 246 246 247 249 252 239 253 252 255 250 246 239 239 235 232 235 238 242 246 239 249 250 262 265 274 283 285 276
227 226 225 230 237 243 241 246 248 249 248 249 251 253 250 251 250 250 253 256 258 256 258 259 257 252 246 243 247 244 243 247 247 250 250 248 248 248 255 262 271 275 280
231 235 236 236 226 241 248 241 244 250 248 250 253 257 251 251 250 253 255 258 260 260 259 258 257 253 254 256 255 254 251 250 251 249 251 253 251 252 255 257 263 269 275
233 238 245 245 242 244 251 247 238 253 253 251 256 257 251 253 252 254 257 256 259 261 259 262 262 258 255 254 262 260 255 252 251 251 253 253 254 253 254 258 261 264 270
242 244 259 255 253 252 252 254 252 257 263 263 265 268 261 255 256 257 256 258 256 260 258 256 260 260 259 254 256 264 276 265 256 253 253 257 253 257 253 255 258 263 269
232 259 271 251 251 254 255 255 261 271 267 271 265 272 274 269 264 262 258 258 257 257 258 254 254 256 261 259 254 252 259 260 273 270 263 255 258 256 254 261 262 264 264
231 257 261 255 258 268 267 261 264 274 276 271 271 279 284 273 273 268 263 259 260 259 256 256 257 256 255 259 256 250 250 251 265 283 273 253 256 256 256 255 264 269 267
230 231 229 250 252 263 273 277 262 274 277 289 286 284 279 278 275 271 269 263 258 260 260 258 258 256 254 256 257 254 250 251 253 254 265 266 266 264 269 256 254 275 267
194 197 208 205 207 235 249 256 255 257 265 270 275 276 275 273 272 273 275 268 263 260 259 260 260 258 256 254 254 255 251 251 253 254 256 264 271 272 270 267 265 272 282